Simultaneous Nadir Overpasses (SNOs) Predictions

Prediction of SNOs between GOES-16 and TERRA Satellite Orbit:

Table of predicted SNOs for the next 14.0 days since TLE Epoch: 5/9/2025
Index Date Time (GOES-16) GOES-16 Lat,Lon TERRA Lat,Lon Distance(km) Time Diff (sec)
1 05/10/2025 03:13:17 -0.07, -90.35 0.50, -87.52 320.88 80
2 05/10/2025 15:35:27 0.07, -90.64 0.39, -92.28 185.41 80
3 05/12/2025 15:13:46 0.06, -91.68 -0.77, -87.73 449.42 80
4 05/13/2025 03:36:05 -0.06, -91.92 -0.19, -92.51 67.39 80
5 05/15/2025 15:33:52 0.05, -93.25 -0.05, -92.71 61.10 80
6 05/16/2025 03:56:11 -0.05, -93.49 -0.91, -97.50 455.68 80
7 05/18/2025 03:34:30 -0.04, -94.53 0.31, -92.96 179.47 80
8 05/18/2025 15:56:39 0.04, -94.83 0.64, -97.70 326.74 80
9 05/20/2025 15:34:57 0.04, -95.87 -0.53, -93.15 308.98 80
10 05/21/2025 03:57:16 -0.03, -96.11 -0.39, -97.94 207.40 80
11 05/23/2025 03:35:33 -0.03, -97.15 0.75, -93.38 428.98 80
12 05/23/2025 15:57:43 0.03, -97.45 0.15, -98.14 77.12 80
